Regional Weather Roundup
Issued by NWS

Home | Current Version | Previous Version | Text Only | Print | Product List | Glossary Off
Versions: 1 2 3 4 5 6 7 8 9 10 11 12 13 14 15 16 17 18 19 20 21 22 23 24 25 26 27 28 29 30 31 32 33 34 35 36 37 38 39 40 41 42 43 44 45 46 47 48 49 50

000
ASUS45 KCYS 201510
RWRWY

WYOMING REGIONAL WEATHER ROUNDUP
NATIONAL WEATHER SERVICE CHEYENNE WY
900 AM MDT THU JUL 20 2017

NOTE:  "FAIR" INDICATES FEW OR NO CLOUDS BELOW 12,000 FEET
WITH NO SIGNIFICANT WEATHER AND/OR OBSTRUCTIONS TO VISIBILITY.

WYZ001-201600-
YELLOWSTONE NATIONAL PARK

CITY           SKY/WX    TMP DP  RH WIND       PRES   REMARKS
LK YELLOWSTONE   N/A     60  49  66 CALM      30.36R
W YELLOWSTONE  NOT AVBL

$$
WYZ002>013-054>058-071-098>099-201600-
NORTHERN WYOMING

CITY           SKY/WX    TMP DP  RH WIND       PRES   REMARKS
JACKSON        SUNNY     64  45  48 CALM      30.27S
CODY           NOT AVBL
GREYBULL       FAIR      79  53  40 S7        30.04R
WORLAND        FAIR      78  56  46 W6        30.05R
SHERIDAN       FAIR      75  54  47 W5        30.01S
BUFFALO        FAIR      75  53  46 SE14      30.10S
GILLETTE       FAIR      82  56  40 S17G25    30.08F
HULETT         FAIR      82  55  39 S18G24    30.11S
NEWCASTLE      FAIR      77  59  53 S17G23    30.15S

$$
WYZ014>020-022>026-101>103-201600-
CENTRAL WYOMING

CITY           SKY/WX    TMP DP  RH WIND       PRES   REMARKS
BIG PINEY      FAIR      62  50  64 CALM      30.33S
PINEDALE       FAIR      66  50  55 W5        30.33F
DUBOIS         FAIR      70  43  37 NW13G18   30.29S
LANDER         FAIR      71  55  56 E3        30.19R
RIVERTON       FAIR      73  54  51 S5        30.19R
CASPER         FAIR      79  51  37 S16G24    30.18S
DOUGLAS        FAIR      78  56  46 SE12      30.18F

$$
WYZ021-027>030-104>119-201600-
SOUTHERN WYOMING

CITY           SKY/WX    TMP DP  RH WIND       PRES   REMARKS
EVANSTON       FAIR      66  49  54 S3        30.32R
KEMMERER         N/A     64  48  55 N5        30.34R
FORT BRIDGER   FAIR      66  49  54 CALM      30.35R
ROCK SPRINGS   FAIR      67  51  56 CALM      30.31R
RAWLINS        FAIR      68  51  54 VRB3      30.32S
SARATOGA       FAIR      68  54  60 SE10      30.35S
LARAMIE        FAIR      71  52  50 S13       30.35F
CHEYENNE       FAIR      73  55  53 S10       30.30S
TORRINGTON     FAIR      71  65  81 CALM      30.17R
PINE BLUFFS    FAIR      72  59  64 S5        30.25S

$$



USA.gov is the U.S. government's official web portal to all federal, state and local government web resources and services.